When you browse on this site, cookies collect data to enhance your experience and personalize the content and advertising you see.
Visit our Privacy Policy to learn more. By continuing to use the site, you agree to this use of cookies and data.
  • en Suisse
  • Liste des pays
  • À 7 jours
  • Température de l'eau
  • Carte satellitaire
  • Carte météo
  • Widgets météo
  • user-avatar
    Se connecter

    Météo par heure à Isansupovo

    Ce jour, 16 Février, Samedi

    Heure Température Précipitation Vent Pression Humidité
    00:00 -10°C° 0.4 mm 6 m/s 738 mmHg 92%
    01:00 -10°C° 0.4 mm 6 m/s 737 mmHg 92%
    02:00 -10°C° 0.2 mm 5 m/s 737 mmHg 92%
    03:00 -8°C° 0.2 mm 5 m/s 736 mmHg 93%
    04:00 -8°C° 0 mm 4 m/s 736 mmHg 93%
    05:00 -8°C° 0.1 mm 5 m/s 736 mmHg 93%
    06:00 -7°C° 0.1 mm 5 m/s 735 mmHg 93%
    07:00 -6°C° 0.1 mm 5 m/s 735 mmHg 94%
    08:00 -5°C° 0.2 mm 5 m/s 735 mmHg 93%
    09:00 -4°C° 0.2 mm 5 m/s 735 mmHg 93%
    10:00 -2°C° 0 mm 5 m/s 735 mmHg 93%
    11:00 -2°C° 0.1 mm 5 m/s 735 mmHg 95%
    12:00 -2°C° 0.1 mm 4 m/s 735 mmHg 97%
    13:00 -2°C° 0.1 mm 4 m/s 735 mmHg 98%
    14:00 -2°C° 0.1 mm 4 m/s 736 mmHg 97%
    15:00 -1°C° 0.1 mm 3 m/s 736 mmHg 95%
    16:00 -1°C° 0.1 mm 3 m/s 736 mmHg 94%
    17:00 -2°C° 0.1 mm 3 m/s 736 mmHg 94%
    18:00 -4°C° 0.1 mm 3 m/s 736 mmHg 95%
    19:00 -5°C° 0.1 mm 3 m/s 737 mmHg 95%
    20:00 -5°C° 0 mm 3 m/s 737 mmHg 95%
    21:00 -5°C° 0 mm 2 m/s 737 mmHg 96%
    22:00 -6°C° 0 mm 2 m/s 737 mmHg 96%
    23:00 -6°C° 0 mm 2 m/s 737 mmHg 96%

    Demain, 17 Février, Dimanche

    Heure Température Précipitation Vent Pression Humidité
    00:00 -6°C° 0 mm 2 m/s 737 mmHg 97%
    01:00 -6°C° 0 mm 2 m/s 738 mmHg 97%
    02:00 -5°C° 0.1 mm 2 m/s 738 mmHg 97%
    03:00 -5°C° 0.1 mm 2 m/s 738 mmHg 97%
    04:00 -4°C° 0.1 mm 2 m/s 738 mmHg 97%
    05:00 -3°C° 0 mm 1 m/s 738 mmHg 97%
    06:00 -3°C° 0 mm 1 m/s 737 mmHg 97%
    07:00 -5°C° 0 mm 0 m/s 737 mmHg 97%
    08:00 -3°C° 0 mm 1 m/s 737 mmHg 97%
    09:00 -3°C° 0 mm 1 m/s 737 mmHg 97%
    10:00 -4°C° 0 mm 2 m/s 736 mmHg 97%
    11:00 -4°C° 0.1 mm 3 m/s 736 mmHg 94%
    12:00 -4°C° 0.1 mm 4 m/s 735 mmHg 91%
    13:00 -4°C° 0.1 mm 5 m/s 735 mmHg 88%
    14:00 -4°C° 0 mm 5 m/s 734 mmHg 88%
    15:00 -5°C° 0 mm 5 m/s 733 mmHg 88%
    16:00 -5°C° 0 mm 5 m/s 733 mmHg 87%
    17:00 -5°C° 0 mm 5 m/s 732 mmHg 88%
    18:00 -6°C° 0 mm 5 m/s 731 mmHg 89%
    19:00 -7°C° 0 mm 5 m/s 730 mmHg 90%
    20:00 -7°C° 0.1 mm 5 m/s 730 mmHg 90%
    21:00 -8°C° 0.1 mm 6 m/s 729 mmHg 90%
    22:00 -8°C° 0.1 mm 6 m/s 728 mmHg 90%
    23:00 -9°C° 0.4 mm 6 m/s 727 mmHg 91%

    Après-demain, 18 Février, Lundi

    Heure Température Précipitation Vent Pression Humidité
    00:00 -9°C° 0.4 mm 6 m/s 727 mmHg 92%
    01:00 -9°C° 0.4 mm 6 m/s 726 mmHg 93%
    02:00 -8°C° 0.4 mm 5 m/s 725 mmHg 93%
    03:00 -8°C° 0.4 mm 5 m/s 725 mmHg 93%
    04:00 -8°C° 0.4 mm 5 m/s 725 mmHg 94%
    05:00 -8°C° 0.3 mm 4 m/s 724 mmHg 94%
    06:00 -7°C° 0.3 mm 3 m/s 724 mmHg 95%
    07:00 -7°C° 0.3 mm 3 m/s 724 mmHg 95%
    08:00 -6°C° 0.3 mm 2 m/s 724 mmHg 95%
    09:00 -6°C° 0.3 mm 2 m/s 725 mmHg 96%
    10:00 -3°C° 0.3 mm 1 m/s 725 mmHg 96%
    11:00 -5°C° 0.3 mm 2 m/s 725 mmHg 95%
    12:00 -4°C° 0.3 mm 2 m/s 726 mmHg 94%
    13:00 -5°C° 0.3 mm 3 m/s 726 mmHg 94%
    14:00 -5°C° 0.3 mm 3 m/s 726 mmHg 93%
    15:00 -5°C° 0.3 mm 4 m/s 727 mmHg 93%
    16:00 -6°C° 0.3 mm 5 m/s 727 mmHg 93%
    17:00 -6°C° 0.3 mm 5 m/s 728 mmHg 93%
    18:00 -6°C° 0.3 mm 6 m/s 729 mmHg 93%
    19:00 -6°C° 0.3 mm 6 m/s 730 mmHg 93%
    20:00 -6°C° 0.3 mm 6 m/s 731 mmHg 92%
    21:00 -7°C° 0.3 mm 7 m/s 732 mmHg 91%
    22:00 -7°C° 0.3 mm 8 m/s 733 mmHg 90%
    23:00 -8°C° 0.2 mm 8 m/s 734 mmHg 88%

    19 Février, Mardi

    Heure Température Précipitation Vent Pression Humidité
    00:00 -11°C° 0.2 mm 9 m/s 735 mmHg 86%
    01:00 -13°C° 0.2 mm 10 m/s 736 mmHg 84%
    02:00 -14°C° 0 mm 9 m/s 737 mmHg 84%
    03:00 -15°C° 0 mm 9 m/s 738 mmHg 85%
    04:00 -16°C° 0 mm 8 m/s 740 mmHg 85%
    05:00 -18°C° 0 mm 7 m/s 741 mmHg 84%
    06:00 -18°C° 0 mm 6 m/s 742 mmHg 83%
    07:00 -20°C° 0 mm 6 m/s 743 mmHg 83%
    08:00 -20°C° 0 mm 6 m/s 744 mmHg 82%
    09:00 -20°C° 0 mm 6 m/s 744 mmHg 81%
    10:00 -20°C° 0 mm 6 m/s 745 mmHg 80%
    11:00 -18°C° 0 mm 5 m/s 746 mmHg 79%
    12:00 -17°C° 0 mm 5 m/s 746 mmHg 79%
    13:00 -15°C° 0 mm 4 m/s 747 mmHg 78%
    14:00 -15°C° 0 mm 4 m/s 747 mmHg 81%
    15:00 -14°C° 0 mm 3 m/s 747 mmHg 84%
    16:00 -14°C° 0 mm 3 m/s 747 mmHg 87%
    17:00 -14°C° 0 mm 3 m/s 747 mmHg 86%
    18:00 -14°C° 0 mm 3 m/s 747 mmHg 86%
    19:00 -14°C° 0 mm 3 m/s 747 mmHg 85%
    20:00 -14°C° 0 mm 4 m/s 747 mmHg 85%
    21:00 -14°C° 0 mm 4 m/s 747 mmHg 85%
    22:00 -13°C° 0 mm 5 m/s 747 mmHg 85%
    23:00 -13°C° 0 mm 5 m/s 747 mmHg 87%

    20 Février, Mercredi

    Heure Température Précipitation Vent Pression Humidité
    00:00 -13°C° 0 mm 5 m/s 746 mmHg 89%
    01:00 -13°C° 0 mm 5 m/s 746 mmHg 91%
    02:00 -12°C° 0 mm 4 m/s 746 mmHg 92%
    03:00 -12°C° 0 mm 4 m/s 746 mmHg 92%
    04:00 -11°C° 0 mm 4 m/s 746 mmHg 92%
    05:00 -11°C° 0 mm 4 m/s 746 mmHg 92%
    06:00 -11°C° 0 mm 4 m/s 746 mmHg 93%
    07:00 -11°C° 0 mm 4 m/s 746 mmHg 93%
    08:00 -11°C° 0 mm 4 m/s 746 mmHg 93%
    09:00 -12°C° 0 mm 5 m/s 746 mmHg 93%
    10:00 -12°C° 0 mm 5 m/s 746 mmHg 93%
    11:00 -11°C° 0 mm 5 m/s 746 mmHg 92%
    12:00 -11°C° 0 mm 6 m/s 745 mmHg 91%
    13:00 -10°C° 0 mm 6 m/s 745 mmHg 90%
    14:00 -10°C° 0 mm 6 m/s 745 mmHg 88%
    15:00 -9°C° 0 mm 6 m/s 744 mmHg 87%
    16:00 -9°C° 0 mm 6 m/s 744 mmHg 85%
    17:00 -9°C° 0 mm 6 m/s 744 mmHg 85%
    18:00 -9°C° 0 mm 7 m/s 744 mmHg 85%
    19:00 -9°C° 0 mm 7 m/s 743 mmHg 85%
    20:00 -9°C° 0 mm 7 m/s 743 mmHg 84%
    21:00 -9°C° 0 mm 7 m/s 743 mmHg 83%
    22:00 -9°C° 0 mm 7 m/s 743 mmHg 83%
    23:00 -11°C° 0 mm 7 m/s 743 mmHg 84%

    21 Février, Jeudi

    Heure Température Précipitation Vent Pression Humidité
    00:00 -11°C° 0 mm 7 m/s 743 mmHg 85%
    01:00 -12°C° 0 mm 7 m/s 742 mmHg 86%
    02:00 -12°C° 0 mm 7 m/s 742 mmHg 87%
    03:00 -12°C° 0 mm 7 m/s 742 mmHg 89%
    04:00 -12°C° 0 mm 7 m/s 742 mmHg 90%
    05:00 -12°C° 0.1 mm 7 m/s 742 mmHg 90%
    06:00 -11°C° 0.1 mm 6 m/s 742 mmHg 90%
    07:00 -11°C° 0.1 mm 6 m/s 742 mmHg 90%
    08:00 -12°C° 0 mm 7 m/s 741 mmHg 90%
    09:00 -12°C° 0 mm 7 m/s 741 mmHg 90%
    10:00 -12°C° 0 mm 7 m/s 741 mmHg 90%
    11:00 -12°C° 0.1 mm 7 m/s 741 mmHg 90%
    12:00 -11°C° 0.1 mm 7 m/s 741 mmHg 90%
    13:00 -11°C° 0.1 mm 7 m/s 740 mmHg 90%
    14:00 -9°C° 0.1 mm 7 m/s 740 mmHg 89%
    15:00 -9°C° 0.1 mm 7 m/s 740 mmHg 88%
    16:00 -8°C° 0.1 mm 7 m/s 740 mmHg 87%
    17:00 -8°C° 0.2 mm 7 m/s 740 mmHg 88%
    18:00 -8°C° 0.2 mm 7 m/s 740 mmHg 89%
    19:00 -8°C° 0.2 mm 7 m/s 740 mmHg 89%
    20:00 -8°C° 0.1 mm 6 m/s 740 mmHg 89%
    21:00 -8°C° 0.1 mm 6 m/s 740 mmHg 89%
    22:00 -6°C° 0.1 mm 6 m/s 740 mmHg 89%
    23:00 -8°C° 0 mm 6 m/s 740 mmHg 90%
    Voir plus